| time (UTC) | temp F | wind direction | speed MPH | gust MPH | rain 1hr in | rain 24hr in | rain mn in | humidity % | barometer mb |
| 20260905062503 | 61 | 0 | 0.0 | 0.0 | 0.00 | 0.01 | 0.00 | 92 | 1014.0 |
| 20260905062003 | 61 | 0 | 0.0 | 0.0 | 0.00 | 0.01 | 0.00 | 92 | 1014.0 |
| 20260905061503 | 61 | 0 | 0.0 | 0.0 | 0.00 | 0.01 | 0.00 | 92 | 1014.0 |
| 20260905061003 | 62 | 0 | 0.0 | 0.0 | 0.00 | 0.01 | 0.00 | 92 | 1014.0 |
| 20260905060503 | 62 | 0 | 0.0 | 0.0 | 0.00 | 0.01 | 0.00 | 91 | 1014.0 |
| 20260905060003 | 62 | 0 | 0.0 | 0.0 | 0.00 | 0.01 | 0.00 | 91 | 1014.1 |
| 20260905055503 | 62 | 0 | 0.0 | 0.0 | 0.00 | 0.01 | 0.00 | 91 | 1014.1 |
| 20260905055003 | 62 | 0 | 0.0 | 0.0 | 0.00 | 0.01 | 0.00 | 91 | 1014.0 |
| 20260905054503 | 62 | 0 | 0.0 | 0.0 | 0.00 | 0.01 | 0.00 | 91 | 1014.0 |
| 20260905054003 | 62 | 236 | 0.0 | 1.0 | 0.00 | 0.01 | 0.00 | 91 | 1014.1 |
| 20260905053503 | 62 | 236 | 0.0 | 1.0 | 0.00 | 0.01 | 0.00 | 91 | 1014.1 |
| 20260905053003 | 62 | 0 | 0.0 | 0.0 | 0.00 | 0.01 | 0.00 | 91 | 1014.3 |
| 20260905052503 | 62 | 0 | 0.0 | 0.0 | 0.00 | 0.01 | 0.00 | 91 | 1014.1 |
| 20260905052003 | 62 | 0 | 0.0 | 0.0 | 0.00 | 0.01 | 0.00 | 91 | 1014.2 |
| 20260905051503 | 62 | 0 | 0.0 | 0.0 | 0.00 | 0.01 | 0.00 | 91 | 1014.2 |
| 20260905051003 | 62 | 0 | 0.0 | 0.0 | 0.00 | 0.01 | 0.00 | 91 | 1014.1 |
| 20260905050503 | 62 | 0 | 0.0 | 0.0 | 0.00 | 0.01 | 0.00 | 91 | 1014.0 |
| 20260905050003 | 62 | 0 | 0.0 | 0.0 | 0.00 | 0.01 | 0.00 | 91 | 1014.0 |
| 20260905045503 | 62 | 0 | 0.0 | 0.0 | 0.00 | 0.01 | 0.00 | 91 | 1014.2 |
| 20260905045003 | 63 | 0 | 0.0 | 0.0 | 0.00 | 0.01 | 0.00 | 91 | 1014.3 |
| 20260905044503 | 63 | 0 | 0.0 | 0.0 | 0.00 | 0.01 | 0.00 | 90 | 1014.2 |
| 20260905044003 | 63 | 0 | 0.0 | 0.0 | 0.00 | 0.01 | 0.00 | 90 | 1014.3 |
| 20260905043503 | 63 | 0 | 0.0 | 0.0 | 0.00 | 0.01 | 0.00 | 90 | 1014.3 |
| 20260905043003 | 63 | 0 | 0.0 | 0.0 | 0.00 | 0.01 | 0.00 | 90 | 1014.3 |
| 20260905042524 | 64 | 0 | 0.0 | 0.0 | 0.00 | 0.01 | 0.00 | 90 | 1014.3 |
| 20260905042003 | 64 | 0 | 0.0 | 0.0 | 0.00 | 0.01 | 0.00 | 90 | 1014.2 |
| 20260905041503 | 64 | 0 | 0.0 | 0.0 | 0.00 | 0.01 | 0.00 | 90 | 1014.1 |
| 20260905041003 | 64 | 0 | 0.0 | 0.0 | 0.00 | 0.01 | 0.00 | 90 | 1014.1 |
| 20260905040524 | 64 | 0 | 0.0 | 0.0 | 0.00 | 0.01 | 0.00 | 90 | 1014.1 |
| 20260905040003 | 64 | 0 | 0.0 | 0.0 | 0.00 | 0.01 | 0.00 | 90 | 1014.2 |
| 20260905035503 | 64 | 0 | 0.0 | 0.0 | 0.00 | 0.01 | 0.01 | 90 | 1014.1 |
| 20260905035003 | 64 | 0 | 0.0 | 0.0 | 0.00 | 0.01 | 0.01 | 90 | 1014.2 |
| 20260905034524 | 64 | 0 | 0.0 | 0.0 | 0.00 | 0.01 | 0.01 | 90 | 1014.3 |
| 20260905034003 | 65 | 0 | 0.0 | 0.0 | 0.00 | 0.01 | 0.01 | 90 | 1014.4 |
| 20260905033503 | 65 | 0 | 0.0 | 0.0 | 0.00 | 0.01 | 0.01 | 89 | 1014.4 |
| 20260905033003 | 65 | 0 | 0.0 | 0.0 | 0.00 | 0.01 | 0.01 | 89 | 1014.4 |
| 20260905032503 | 65 | 0 | 0.0 | 0.0 | 0.00 | 0.01 | 0.01 | 89 | 1014.3 |
| 20260905032003 | 65 | 0 | 0.0 | 0.0 | 0.00 | 0.01 | 0.01 | 89 | 1014.3 |
| 20260905031503 | 66 | 0 | 0.0 | 0.0 | 0.00 | 0.01 | 0.01 | 89 | 1014.3 |
| 20260905031003 | 66 | 0 | 0.0 | 0.0 | 0.00 | 0.01 | 0.01 | 89 | 1014.3 |
| 20260905030503 | 66 | 0 | 0.0 | 0.0 | 0.00 | 0.01 | 0.01 | 89 | 1014.1 |
| 20260905030024 | 66 | 0 | 0.0 | 0.0 | 0.00 | 0.01 | 0.01 | 89 | 1014.1 |
| 20260905025503 | 66 | 0 | 0.0 | 0.0 | 0.00 | 0.01 | 0.01 | 88 | 1014.1 |
| 20260905025003 | 66 | 0 | 0.0 | 0.0 | 0.00 | 0.01 | 0.01 | 88 | 1014.4 |
| 20260905024524 | 67 | 0 | 0.0 | 0.0 | 0.00 | 0.01 | 0.01 | 88 | 1014.2 |
| 20260905024003 | 67 | 0 | 0.0 | 0.0 | 0.00 | 0.01 | 0.01 | 88 | 1014.1 |
| 20260905023503 | 67 | 0 | 0.0 | 0.0 | 0.00 | 0.01 | 0.01 | 88 | 1014.2 |
| 20260905023024 | 67 | 0 | 0.0 | 0.0 | 0.00 | 0.01 | 0.01 | 88 | 1014.1 |
| 20260905022503 | 68 | 0 | 0.0 | 0.0 | 0.00 | 0.01 | 0.01 | 88 | 1014.2 |
| 20260905022003 | 68 | 0 | 0.0 | 0.0 | 0.00 | 0.01 | 0.01 | 87 | 1014.1 |
| 20260905021524 | 68 | 0 | 0.0 | 0.0 | 0.00 | 0.01 | 0.01 | 88 | 1014.1 |
| 20260905021003 | 68 | 0 | 0.0 | 0.0 | 0.00 | 0.01 | 0.01 | 87 | 1014.2 |
| 20260905020503 | 68 | 0 | 0.0 | 0.0 | 0.00 | 0.01 | 0.01 | 87 | 1014.1 |
| 20260905020024 | 68 | 0 | 0.0 | 0.0 | 0.00 | 0.01 | 0.01 | 87 | 1014.1 |
| 20260905015524 | 68 | 0 | 0.0 | 0.0 | 0.00 | 0.01 | 0.01 | 87 | 1014.2 |
| 20260905015003 | 68 | 0 | 0.0 | 0.0 | 0.00 | 0.01 | 0.01 | 87 | 1014.3 |
| 20260905014503 | 68 | 0 | 0.0 | 0.0 | 0.00 | 0.01 | 0.01 | 87 | 1014.2 |
| 20260905014003 | 68 | 0 | 0.0 | 0.0 | 0.00 | 0.01 | 0.01 | 87 | 1014.1 |
| 20260905013524 | 68 | 0 | 0.0 | 0.0 | 0.00 | 0.01 | 0.01 | 86 | 1014.3 |
| 20260905013003 | 68 | 0 | 0.0 | 0.0 | 0.00 | 0.01 | 0.01 | 86 | 1014.3 |
| 20260905012524 | 69 | 0 | 0.0 | 0.0 | 0.00 | 0.01 | 0.01 | 86 | 1014.3 |
| 20260905012003 | 69 | 0 | 0.0 | 0.0 | 0.00 | 0.03 | 0.01 | 85 | 1014.3 |
| 20260905011503 | 69 | 0 | 0.0 | 0.0 | 0.00 | 0.19 | 0.01 | 85 | 1014.2 |
| 20260905011003 | 69 | 0 | 0.0 | 0.0 | 0.00 | 0.23 | 0.01 | 85 | 1014.2 |
| 20260905010503 | 70 | 0 | 0.0 | 0.0 | 0.00 | 0.30 | 0.01 | 84 | 1014.2 |
| 20260905010024 | 70 | 236 | 0.0 | 1.0 | 0.00 | 0.31 | 0.01 | 84 | 1014.3 |
| 20260905005503 | 70 | 236 | 0.0 | 1.0 | 0.00 | 0.31 | 0.01 | 83 | 1014.2 |
| 20260905005003 | 70 | 0 | 0.0 | 0.0 | 0.00 | 0.32 | 0.01 | 83 | 1014.3 |
| 20260905004503 | 70 | 0 | 0.0 | 0.0 | 0.00 | 0.33 | 0.01 | 82 | 1014.3 |
| 20260905004003 | 70 | 236 | 0.0 | 1.0 | 0.00 | 0.34 | 0.01 | 82 | 1014.0 |
| 20260905003524 | 70 | 236 | 0.0 | 2.0 | 0.00 | 0.34 | 0.01 | 81 | 1014.0 |
| 20260905003003 | 71 | 236 | 0.0 | 2.0 | 0.00 | 0.34 | 0.01 | 81 | 1014.0 |
| 20260905002503 | 71 | 236 | 0.0 | 1.0 | 0.00 | 0.34 | 0.01 | 81 | 1014.1 |
| 20260905002003 | 71 | 236 | 0.0 | 1.0 | 0.00 | 0.39 | 0.01 | 81 | 1014.0 |
| 20260905001524 | 71 | 236 | 0.0 | 1.0 | 0.00 | 0.41 | 0.01 | 80 | 1014.0 |
| 20260905001003 | 71 | 236 | 0.0 | 1.0 | 0.00 | 0.54 | 0.01 | 80 | 1014.0 |
| 20260905000503 | 71 | 236 | 0.0 | 1.0 | 0.00 | 0.59 | 0.01 | 79 | 1013.9 |
| 20260905000003 | 71 | 236 | 0.0 | 1.0 | 0.00 | 0.59 | 0.01 | 79 | 1013.9 |
| 20260904235503 | 72 | 236 | 0.0 | 2.0 | 0.00 | 0.59 | 0.01 | 78 | 1014.0 |
| 20260904235024 | 72 | 236 | 0.0 | 2.0 | 0.00 | 0.59 | 0.01 | 78 | 1014.0 |
| 20260904234504 | 72 | 236 | 0.0 | 2.0 | 0.00 | 0.59 | 0.01 | 77 | 1014.0 |
| 20260904234003 | 72 | 236 | 1.0 | 3.0 | 0.00 | 0.59 | 0.01 | 77 | 1013.9 |
| 20260904233503 | 72 | 236 | 1.0 | 3.0 | 0.00 | 0.59 | 0.01 | 77 | 1013.8 |
| 20260904233003 | 72 | 236 | 1.0 | 3.0 | 0.00 | 0.59 | 0.01 | 77 | 1013.9 |
| 20260904232503 | 72 | 236 | 0.0 | 2.0 | 0.00 | 0.60 | 0.01 | 77 | 1013.8 |
| 20260904232003 | 72 | 236 | 1.0 | 3.0 | 0.00 | 0.62 | 0.01 | 77 | 1013.9 |
| 20260904231503 | 72 | 236 | 1.0 | 3.0 | 0.00 | 0.62 | 0.01 | 76 | 1014.0 |
| 20260904231024 | 72 | 236 | 0.0 | 3.0 | 0.00 | 0.62 | 0.01 | 76 | 1013.8 |
| 20260904230503 | 72 | 236 | 1.0 | 3.0 | 0.00 | 0.62 | 0.01 | 76 | 1013.8 |
| 20260904230003 | 72 | 236 | 1.0 | 3.0 | 0.00 | 0.62 | 0.01 | 75 | 1013.7 |
| 20260904225503 | 72 | 236 | 1.0 | 3.0 | 0.00 | 0.62 | 0.01 | 76 | 1013.6 |
| 20260904225003 | 72 | 236 | 1.0 | 2.0 | 0.00 | 0.62 | 0.01 | 76 | 1013.6 |
| 20260904224524 | 73 | 236 | 1.0 | 2.0 | 0.00 | 0.62 | 0.01 | 75 | 1013.5 |
| 20260904224003 | 72 | 236 | 0.0 | 3.0 | 0.00 | 0.62 | 0.01 | 75 | 1013.4 |
| 20260904223503 | 72 | 236 | 0.0 | 3.0 | 0.00 | 0.62 | 0.01 | 75 | 1013.4 |
| 20260904223003 | 72 | 236 | 1.0 | 4.0 | 0.00 | 0.62 | 0.01 | 74 | 1013.4 |
| 20260904222503 | 72 | 236 | 1.0 | 4.0 | 0.00 | 0.62 | 0.01 | 75 | 1013.3 |
| 20260904222024 | 72 | 236 | 1.0 | 4.0 | 0.00 | 0.62 | 0.01 | 74 | 1013.1 |
| 20260904221503 | 73 | 236 | 1.0 | 4.0 | 0.00 | 0.62 | 0.01 | 74 | 1013.0 |
| 20260904221003 | 73 | 236 | 1.0 | 4.0 | 0.00 | 0.62 | 0.01 | 74 | 1013.1 |
| 20260904220524 | 73 | 236 | 1.0 | 3.0 | 0.00 | 0.62 | 0.01 | 74 | 1012.9 |
| 20260904220003 | 73 | 236 | 1.0 | 3.0 | 0.00 | 0.62 | 0.01 | 73 | 1012.9 |
| 20260904215503 | 73 | 236 | 1.0 | 3.0 | 0.00 | 0.62 | 0.01 | 73 | 1012.9 |
| 20260904215003 | 73 | 236 | 1.0 | 4.0 | 0.00 | 0.62 | 0.01 | 72 | 1012.9 |
| 20260904214524 | 73 | 236 | 1.0 | 4.0 | 0.00 | 0.62 | 0.01 | 72 | 1012.8 |
| 20260904214003 | 73 | 236 | 1.0 | 3.0 | 0.00 | 0.62 | 0.01 | 72 | 1012.8 |
| 20260904213503 | 73 | 236 | 1.0 | 3.0 | 0.00 | 0.62 | 0.01 | 73 | 1012.8 |
| 20260904213003 | 73 | 236 | 0.0 | 2.0 | 0.00 | 0.62 | 0.01 | 73 | 1012.8 |
| 20260904212503 | 73 | 236 | 1.0 | 4.0 | 0.00 | 0.62 | 0.01 | 73 | 1012.8 |
| 20260904212003 | 73 | 236 | 1.0 | 4.0 | 0.00 | 0.62 | 0.01 | 72 | 1013.0 |
| 20260904211503 | 73 | 236 | 1.0 | 4.0 | 0.00 | 0.62 | 0.01 | 72 | 1013.0 |
| 20260904211003 | 73 | 236 | 2.0 | 4.0 | 0.00 | 0.62 | 0.01 | 71 | 1013.0 |
| 20260904210503 | 73 | 236 | 1.0 | 4.0 | 0.00 | 0.62 | 0.01 | 71 | 1013.3 |
| 20260904210003 | 73 | 236 | 1.0 | 4.0 | 0.00 | 0.62 | 0.01 | 71 | 1013.3 |
| 20260904205524 | 74 | 237 | 2.0 | 8.0 | 0.00 | 0.62 | 0.01 | 71 | 1013.4 |
| 20260904205003 | 74 | 237 | 2.0 | 8.0 | 0.00 | 0.62 | 0.01 | 70 | 1013.3 |
| 20260904204503 | 74 | 238 | 2.0 | 5.0 | 0.00 | 0.62 | 0.01 | 69 | 1013.4 |
| 20260904204003 | 74 | 238 | 2.0 | 8.0 | 0.00 | 0.62 | 0.01 | 69 | 1013.5 |
| 20260904203503 | 74 | 239 | 2.0 | 8.0 | 0.00 | 0.62 | 0.01 | 68 | 1013.5 |
| 20260904203003 | 74 | 240 | 2.0 | 7.0 | 0.00 | 0.62 | 0.01 | 68 | 1013.5 |
| 20260904202503 | 74 | 240 | 3.0 | 7.0 | 0.00 | 0.62 | 0.01 | 67 | 1013.6 |
| 20260904202003 | 74 | 240 | 3.0 | 8.0 | 0.00 | 0.62 | 0.01 | 67 | 1013.5 |
| 20260904201503 | 74 | 240 | 3.0 | 8.0 | 0.00 | 0.62 | 0.01 | 66 | 1013.6 |
| 20260904201003 | 74 | 239 | 3.0 | 7.0 | 0.00 | 0.62 | 0.01 | 64 | 1013.7 |
| 20260904200524 | 75 | 238 | 3.0 | 7.0 | 0.00 | 0.62 | 0.01 | 63 | 1013.7 |
| 20260904200003 | 75 | 239 | 3.0 | 8.0 | 0.00 | 0.62 | 0.01 | 64 | 1013.7 |
| 20260904195503 | 75 | 240 | 2.0 | 7.0 | 0.00 | 0.62 | 0.01 | 64 | 1013.7 |
| 20260904195003 | 75 | 240 | 2.0 | 7.0 | 0.00 | 0.62 | 0.01 | 63 | 1013.8 |
| 20260904194524 | 75 | 240 | 2.0 | 7.0 | 0.00 | 0.62 | 0.01 | 62 | 1014.0 |
| 20260904194003 | 75 | 240 | 3.0 | 8.0 | 0.00 | 0.62 | 0.01 | 63 | 1013.9 |
| 20260904193503 | 75 | 240 | 3.0 | 8.0 | 0.00 | 0.62 | 0.01 | 62 | 1013.9 |
| 20260904193003 | 75 | 239 | 3.0 | 7.0 | 0.00 | 0.62 | 0.01 | 61 | 1014.0 |
| 20260904192503 | 75 | 240 | 3.0 | 10.0 | 0.00 | 0.62 | 0.01 | 62 | 1014.0 |
| 20260904192003 | 76 | 245 | 3.0 | 10.0 | 0.00 | 0.62 | 0.01 | 62 | 1014.3 |
| 20260904191503 | 76 | 251 | 3.0 | 8.0 | 0.00 | 0.62 | 0.01 | 62 | 1014.3 |
| 20260904191024 | 76 | 250 | 3.0 | 8.0 | 0.00 | 0.62 | 0.01 | 60 | 1014.3 |
| 20260904190503 | 76 | 249 | 3.0 | 8.0 | 0.00 | 0.62 | 0.01 | 61 | 1014.3 |
| 20260904190003 | 75 | 249 | 2.0 | 7.0 | 0.00 | 0.62 | 0.01 | 61 | 1014.4 |
| 20260904185503 | 75 | 249 | 3.0 | 7.0 | 0.00 | 0.62 | 0.01 | 62 | 1014.6 |
| 20260904185024 | 75 | 249 | 3.0 | 8.0 | 0.00 | 0.62 | 0.01 | 61 | 1014.7 |
| 20260904184503 | 75 | 248 | 3.0 | 8.0 | 0.00 | 0.62 | 0.01 | 62 | 1014.7 |
| 20260904184003 | 75 | 247 | 2.0 | 7.0 | 0.00 | 0.62 | 0.01 | 61 | 1014.7 |
| 20260904183503 | 76 | 247 | 2.0 | 7.0 | 0.00 | 0.62 | 0.01 | 61 | 1014.7 |
| 20260904183003 | 76 | 246 | 2.0 | 7.0 | 0.00 | 0.62 | 0.01 | 60 | 1014.9 |
| 20260904182503 | 76 | 250 | 2.0 | 8.0 | 0.00 | 0.62 | 0.01 | 61 | 1014.8 |
| 20260904182003 | 76 | 255 | 3.0 | 8.0 | 0.00 | 0.62 | 0.01 | 60 | 1014.7 |
| 20260904181503 | 76 | 256 | 3.0 | 8.0 | 0.00 | 0.62 | 0.01 | 59 | 1014.7 |
| 20260904181024 | 76 | 254 | 3.0 | 9.0 | 0.00 | 0.62 | 0.01 | 59 | 1014.7 |
| 20260904180503 | 76 | 254 | 4.0 | 9.0 | 0.00 | 0.62 | 0.01 | 56 | 1014.8 |
| 20260904180003 | 77 | 256 | 3.0 | 9.0 | 0.00 | 0.62 | 0.01 | 56 | 1014.8 |
| 20260904175503 | 77 | 260 | 2.0 | 7.0 | 0.00 | 0.62 | 0.01 | 57 | 1014.8 |
| 20260904175024 | 77 | 261 | 3.0 | 7.0 | 0.00 | 0.62 | 0.01 | 58 | 1014.8 |
| 20260904174503 | 76 | 261 | 3.0 | 8.0 | 0.00 | 0.62 | 0.01 | 58 | 1014.9 |
| 20260904174003 | 76 | 261 | 3.0 | 8.0 | 0.00 | 0.62 | 0.01 | 58 | 1014.9 |
| 20260904173503 | 76 | 258 | 4.0 | 11.0 | 0.00 | 0.62 | 0.01 | 57 | 1014.8 |
| 20260904173003 | 76 | 254 | 4.0 | 11.0 | 0.00 | 0.62 | 0.01 | 55 | 1014.9 |
| 20260904172524 | 77 | 252 | 3.0 | 7.0 | 0.00 | 0.62 | 0.01 | 58 | 1015.3 |
| 20260904172024 | 78 | 253 | 3.0 | 7.0 | 0.00 | 0.62 | 0.01 | 56 | 1015.3 |
| 20260904171503 | 77 | 254 | 3.0 | 8.0 | 0.00 | 0.62 | 0.01 | 57 | 1015.2 |
| 20260904171024 | 76 | 254 | 3.0 | 9.0 | 0.00 | 0.62 | 0.01 | 56 | 1015.2 |
| 20260904170503 | 76 | 254 | 3.0 | 9.0 | 0.00 | 0.62 | 0.01 | 54 | 1015.3 |
| 20260904170003 | 76 | 255 | 3.0 | 9.0 | 0.00 | 0.62 | 0.01 | 53 | 1015.5 |
| 20260904165503 | 77 | 255 | 3.0 | 9.0 | 0.00 | 0.62 | 0.01 | 53 | 1015.5 |
| 20260904165003 | 77 | 255 | 2.0 | 9.0 | 0.00 | 0.62 | 0.01 | 53 | 1015.5 |
| 20260904164503 | 76 | 255 | 2.0 | 9.0 | 0.00 | 0.62 | 0.01 | 56 | 1015.5 |
| 20260904164003 | 76 | 256 | 3.0 | 9.0 | 0.00 | 0.62 | 0.01 | 63 | 1015.6 |
| 20260904163503 | 76 | 257 | 3.0 | 9.0 | 0.00 | 0.62 | 0.01 | 61 | 1015.6 |
| 20260904163003 | 77 | 260 | 2.0 | 8.0 | 0.00 | 0.62 | 0.01 | 60 | 1015.6 |
| 20260904162503 | 76 | 263 | 3.0 | 8.0 | 0.00 | 0.62 | 0.01 | 59 | 1015.7 |
| 20260904162003 | 76 | 262 | 3.0 | 8.0 | 0.00 | 0.62 | 0.01 | 62 | 1015.7 |
| 20260904161503 | 75 | 265 | 3.0 | 7.0 | 0.00 | 0.62 | 0.01 | 62 | 1015.7 |
| 20260904161024 | 75 | 276 | 2.0 | 7.0 | 0.00 | 0.62 | 0.01 | 62 | 1015.9 |
| 20260904160503 | 75 | 283 | 2.0 | 6.0 | 0.00 | 0.62 | 0.01 | 63 | 1015.9 |
| 20260904160003 | 75 | 283 | 2.0 | 4.0 | 0.00 | 0.62 | 0.01 | 63 | 1015.9 |
| 20260904155524 | 75 | 287 | 2.0 | 4.0 | 0.00 | 0.62 | 0.01 | 63 | 1015.7 |
| 20260904155003 | 75 | 299 | 1.0 | 4.0 | 0.00 | 0.62 | 0.01 | 62 | 1015.6 |
| 20260904154503 | 75 | 306 | 1.0 | 4.0 | 0.00 | 0.62 | 0.01 | 64 | 1015.5 |
| 20260904154003 | 74 | 306 | 1.0 | 4.0 | 0.00 | 0.62 | 0.01 | 65 | 1015.4 |
| 20260904153504 | 74 | 306 | 1.0 | 3.0 | 0.00 | 0.62 | 0.01 | 66 | 1015.4 |
| 20260904153003 | 74 | 306 | 1.0 | 3.0 | 0.00 | 0.62 | 0.01 | 66 | 1015.4 |
| 20260904152503 | 73 | 306 | 2.0 | 4.0 | 0.00 | 0.62 | 0.01 | 67 | 1015.4 |
| 20260904152003 | 73 | 306 | 2.0 | 4.0 | 0.00 | 0.62 | 0.01 | 65 | 1015.3 |
| 20260904151503 | 74 | 306 | 1.0 | 3.0 | 0.00 | 0.62 | 0.01 | 66 | 1015.4 |
| 20260904151024 | 74 | 306 | 1.0 | 3.0 | 0.00 | 0.62 | 0.01 | 65 | 1015.4 |
| 20260904150503 | 74 | 306 | 1.0 | 4.0 | 0.00 | 0.62 | 0.01 | 68 | 1015.4 |
| 20260904150003 | 72 | 306 | 1.0 | 5.0 | 0.00 | 0.62 | 0.01 | 71 | 1015.6 |
| 20260904145503 | 72 | 306 | 1.0 | 5.0 | 0.00 | 0.62 | 0.01 | 69 | 1015.6 |
| 20260904145003 | 72 | 306 | 1.0 | 4.0 | 0.00 | 0.62 | 0.01 | 71 | 1015.6 |
| 20260904144503 | 72 | 306 | 1.0 | 3.0 | 0.00 | 0.62 | 0.01 | 72 | 1015.6 |
| 20260904144003 | 72 | 306 | 1.0 | 2.0 | 0.00 | 0.62 | 0.01 | 72 | 1015.4 |
| 20260904143503 | 72 | 306 | 1.0 | 3.0 | 0.00 | 0.62 | 0.01 | 72 | 1015.4 |
| 20260904143003 | 72 | 306 | 1.0 | 3.0 | 0.00 | 0.62 | 0.01 | 70 | 1015.3 |
| 20260904142503 | 72 | 306 | 0.0 | 3.0 | 0.00 | 0.62 | 0.01 | 74 | 1015.4 |
| 20260904142004 | 72 | 306 | 1.0 | 3.0 | 0.00 | 0.62 | 0.01 | 76 | 1015.1 |
| 20260904141503 | 71 | 306 | 2.0 | 4.0 | 0.00 | 0.62 | 0.01 | 76 | 1015.0 |
| 20260904141003 | 71 | 305 | 1.0 | 4.0 | 0.00 | 0.62 | 0.01 | 75 | 1015.1 |
| 20260904140524 | 70 | 305 | 1.0 | 4.0 | 0.00 | 0.62 | 0.01 | 76 | 1015.1 |
| 20260904140003 | 70 | 305 | 2.0 | 4.0 | 0.00 | 0.62 | 0.01 | 77 | 1015.1 |
| 20260904135503 | 70 | 305 | 1.0 | 4.0 | 0.00 | 0.62 | 0.01 | 77 | 1015.1 |
| 20260904135003 | 70 | 305 | 1.0 | 4.0 | 0.00 | 0.62 | 0.01 | 77 | 1015.2 |
| 20260904134503 | 70 | 305 | 1.0 | 3.0 | 0.00 | 0.62 | 0.01 | 79 | 1015.4 |
| 20260904134003 | 70 | 305 | 1.0 | 3.0 | 0.00 | 0.62 | 0.01 | 77 | 1015.4 |
| 20260904133503 | 70 | 305 | 0.0 | 3.0 | 0.00 | 0.62 | 0.01 | 78 | 1015.3 |
| 20260904133003 | 70 | 0 | 0.0 | 3.0 | 0.00 | 0.62 | 0.01 | 79 | 1015.4 |
| 20260904132503 | 69 | 305 | 0.0 | 3.0 | 0.00 | 0.62 | 0.01 | 79 | 1015.3 |
| 20260904132024 | 69 | 305 | 1.0 | 3.0 | 0.00 | 0.62 | 0.01 | 79 | 1015.5 |
| 20260904131503 | 69 | 305 | 1.0 | 3.0 | 0.00 | 0.62 | 0.01 | 81 | 1015.5 |
| 20260904131024 | 69 | 305 | 1.0 | 3.0 | 0.00 | 0.62 | 0.01 | 81 | 1015.6 |
| 20260904130503 | 69 | 305 | 0.0 | 3.0 | 0.00 | 0.62 | 0.01 | 84 | 1015.7 |
| 20260904130003 | 68 | 305 | 1.0 | 3.0 | 0.00 | 0.62 | 0.01 | 84 | 1015.6 |
| 20260904125503 | 68 | 305 | 1.0 | 3.0 | 0.00 | 0.62 | 0.01 | 87 | 1015.6 |
| 20260904125003 | 68 | 305 | 0.0 | 3.0 | 0.00 | 0.62 | 0.01 | 90 | 1015.7 |
| 20260904124503 | 67 | 0 | 0.0 | 0.0 | 0.00 | 0.62 | 0.01 | 91 | 1015.7 |
| 20260904124003 | 67 | 305 | 0.0 | 1.0 | 0.00 | 0.62 | 0.01 | 93 | 1015.7 |
| 20260904123524 | 66 | 295 | 0.0 | 2.0 | 0.00 | 0.62 | 0.01 | 93 | 1015.6 |
| 20260904123003 | 66 | 294 | 0.0 | 2.0 | 0.00 | 0.62 | 0.01 | 92 | 1015.5 |
| 20260904122524 | 66 | 294 | 0.0 | 2.0 | 0.00 | 0.62 | 0.01 | 93 | 1015.5 |
| 20260904122003 | 66 | 0 | 0.0 | 0.0 | 0.00 | 0.62 | 0.01 | 93 | 1015.4 |
| 20260904121503 | 66 | 0 | 0.0 | 0.0 | 0.00 | 0.62 | 0.01 | 93 | 1015.4 |
| 20260904121003 | 67 | 0 | 0.0 | 0.0 | 0.00 | 0.62 | 0.01 | 93 | 1015.5 |
| 20260904120503 | 67 | 0 | 0.0 | 0.0 | 0.00 | 0.62 | 0.01 | 94 | 1015.5 |
| 20260904120003 | 66 | 0 | 0.0 | 0.0 | 0.00 | 0.62 | 0.01 | 94 | 1015.5 |
| 20260904115503 | 66 | 0 | 0.0 | 0.0 | 0.00 | 0.62 | 0.01 | 93 | 1015.5 |
| 20260904115003 | 66 | 0 | 0.0 | 0.0 | 0.00 | 0.62 | 0.01 | 93 | 1015.4 |
| 20260904114503 | 66 | 0 | 0.0 | 0.0 | 0.00 | 0.62 | 0.01 | 93 | 1015.3 |
| 20260904114003 | 66 | 0 | 0.0 | 0.0 | 0.00 | 0.62 | 0.01 | 93 | 1015.2 |
| 20260904113503 | 66 | 0 | 0.0 | 0.0 | 0.00 | 0.62 | 0.01 | 93 | 1015.2 |
| 20260904113003 | 66 | 0 | 0.0 | 0.0 | 0.00 | 0.62 | 0.01 | 93 | 1015.2 |
| 20260904112524 | 66 | 0 | 0.0 | 0.0 | 0.00 | 0.62 | 0.01 | 93 | 1015.0 |
| 20260904112003 | 66 | 0 | 0.0 | 0.0 | 0.00 | 0.62 | 0.01 | 93 | 1014.9 |
| 20260904111503 | 66 | 0 | 0.0 | 0.0 | 0.00 | 0.62 | 0.01 | 93 | 1014.9 |
| 20260904111003 | 66 | 0 | 0.0 | 0.0 | 0.00 | 0.62 | 0.01 | 93 | 1015.0 |
| 20260904110503 | 66 | 0 | 0.0 | 0.0 | 0.00 | 0.62 | 0.01 | 93 | 1014.9 |
| 20260904110003 | 66 | 0 | 0.0 | 0.0 | 0.00 | 0.62 | 0.01 | 93 | 1014.9 |
| 20260904105503 | 66 | 0 | 0.0 | 0.0 | 0.01 | 0.62 | 0.01 | 93 | 1015.0 |
| 20260904105003 | 66 | 0 | 0.0 | 0.0 | 0.01 | 0.62 | 0.01 | 93 | 1014.9 |
| 20260904104503 | 66 | 0 | 0.0 | 0.0 | 0.01 | 0.62 | 0.01 | 93 | 1014.8 |
| 20260904104003 | 66 | 0 | 0.0 | 0.0 | 0.01 | 0.62 | 0.01 | 93 | 1015.0 |
| 20260904103503 | 66 | 0 | 0.0 | 0.0 | 0.01 | 0.62 | 0.01 | 93 | 1014.9 |
| 20260904103024 | 66 | 0 | 0.0 | 0.0 | 0.01 | 0.62 | 0.01 | 93 | 1014.9 |
| 20260904102503 | 66 | 0 | 0.0 | 0.0 | 0.01 | 0.62 | 0.01 | 93 | 1015.0 |
| 20260904102003 | 66 | 0 | 0.0 | 0.0 | 0.01 | 0.62 | 0.01 | 93 | 1014.9 |
| 20260904101503 | 66 | 0 | 0.0 | 0.0 | 0.01 | 0.62 | 0.01 | 93 | 1014.9 |
| 20260904101003 | 66 | 0 | 0.0 | 0.0 | 0.01 | 0.62 | 0.01 | 93 | 1014.9 |
| 20260904100524 | 66 | 0 | 0.0 | 0.0 | 0.01 | 0.62 | 0.01 | 93 | 1015.0 |
| 20260904100003 | 66 | 0 | 0.0 | 0.0 | 0.01 | 0.62 | 0.01 | 93 | 1014.9 |
| 20260904095503 | 66 | 0 | 0.0 | 0.0 | 0.00 | 0.61 | 0.00 | 93 | 1014.8 |
| 20260904095003 | 66 | 0 | 0.0 | 0.0 | 0.00 | 0.61 | 0.00 | 93 | 1014.9 |
| 20260904094503 | 66 | 0 | 0.0 | 0.0 | 0.00 | 0.61 | 0.00 | 93 | 1014.6 |
| 20260904094003 | 66 | 0 | 0.0 | 0.0 | 0.00 | 0.61 | 0.00 | 93 | 1014.8 |
| 20260904093503 | 66 | 0 | 0.0 | 0.0 | 0.00 | 0.61 | 0.00 | 93 | 1014.6 |
| 20260904093003 | 66 | 0 | 0.0 | 0.0 | 0.00 | 0.61 | 0.00 | 93 | 1014.8 |
| 20260904092503 | 66 | 0 | 0.0 | 0.0 | 0.00 | 0.61 | 0.00 | 93 | 1014.7 |
| 20260904092003 | 66 | 0 | 0.0 | 0.0 | 0.00 | 0.61 | 0.00 | 93 | 1014.7 |
| 20260904091503 | 66 | 0 | 0.0 | 0.0 | 0.00 | 0.61 | 0.00 | 93 | 1014.7 |
| 20260904091003 | 67 | 0 | 0.0 | 0.0 | 0.00 | 0.61 | 0.00 | 93 | 1014.5 |
| 20260904090503 | 67 | 0 | 0.0 | 0.0 | 0.00 | 0.61 | 0.00 | 93 | 1014.6 |
| 20260904090024 | 67 | 0 | 0.0 | 0.0 | 0.00 | 0.61 | 0.00 | 93 | 1014.6 |
| 20260904085503 | 67 | 0 | 0.0 | 0.0 | 0.00 | 0.61 | 0.00 | 93 | 1014.6 |
| 20260904085003 | 67 | 0 | 0.0 | 0.0 | 0.00 | 0.61 | 0.00 | 93 | 1014.7 |
| 20260904084503 | 67 | 0 | 0.0 | 0.0 | 0.00 | 0.61 | 0.00 | 93 | 1014.7 |
| 20260904084003 | 68 | 0 | 0.0 | 0.0 | 0.00 | 0.61 | 0.00 | 93 | 1014.6 |
| 20260904083503 | 68 | 0 | 0.0 | 0.0 | 0.00 | 0.61 | 0.00 | 93 | 1014.7 |
| 20260904083003 | 68 | 0 | 0.0 | 0.0 | 0.00 | 0.61 | 0.00 | 93 | 1014.6 |
| 20260904082503 | 68 | 0 | 0.0 | 0.0 | 0.00 | 0.61 | 0.00 | 93 | 1014.5 |
| 20260904082024 | 68 | 0 | 0.0 | 0.0 | 0.00 | 0.61 | 0.00 | 93 | 1014.4 |
| 20260904081524 | 68 | 0 | 0.0 | 0.0 | 0.00 | 0.61 | 0.00 | 93 | 1014.3 |
| 20260904081003 | 68 | 0 | 0.0 | 0.0 | 0.00 | 0.61 | 0.00 | 93 | 1014.4 |
| 20260904080503 | 68 | 0 | 0.0 | 0.0 | 0.00 | 0.61 | 0.00 | 93 | 1014.4 |
| 20260904080003 | 68 | 0 | 0.0 | 0.0 | 0.00 | 0.61 | 0.00 | 93 | 1014.3 |
| 20260904075503 | 68 | 0 | 0.0 | 0.0 | 0.00 | 0.61 | 0.00 | 93 | 1014.4 |
| 20260904075003 | 68 | 0 | 0.0 | 0.0 | 0.00 | 0.61 | 0.00 | 93 | 1014.1 |
| 20260904074503 | 68 | 0 | 0.0 | 0.0 | 0.00 | 0.61 | 0.00 | 93 | 1014.0 |
| 20260904074003 | 68 | 0 | 0.0 | 0.0 | 0.00 | 0.61 | 0.00 | 93 | 1013.9 |
| 20260904073503 | 68 | 0 | 0.0 | 0.0 | 0.00 | 0.61 | 0.00 | 93 | 1014.0 |
| 20260904073003 | 68 | 0 | 0.0 | 0.0 | 0.00 | 0.61 | 0.00 | 93 | 1013.9 |
| 20260904072503 | 67 | 0 | 0.0 | 0.0 | 0.00 | 0.61 | 0.00 | 93 | 1014.0 |
| 20260904072003 | 68 | 0 | 0.0 | 0.0 | 0.00 | 0.61 | 0.00 | 93 | 1013.9 |
| 20260904071524 | 67 | 0 | 0.0 | 0.0 | 0.00 | 0.61 | 0.00 | 93 | 1013.9 |
| 20260904071003 | 68 | 0 | 0.0 | 0.0 | 0.00 | 0.61 | 0.00 | 93 | 1014.0 |
| 20260904070503 | 68 | 0 | 0.0 | 0.0 | 0.00 | 0.61 | 0.00 | 93 | 1014.0 |
| 20260904070003 | 68 | 0 | 0.0 | 0.0 | 0.00 | 0.61 | 0.00 | 93 | 1013.9 |
| 20260904065524 | 68 | 0 | 0.0 | 0.0 | 0.00 | 0.61 | 0.00 | 93 | 1014.1 |
| 20260904065003 | 67 | 0 | 0.0 | 0.0 | 0.00 | 0.61 | 0.00 | 93 | 1014.1 |
| 20260904064503 | 67 | 0 | 0.0 | 0.0 | 0.00 | 0.61 | 0.00 | 93 | 1014.1 |
| 20260904064024 | 67 | 0 | 0.0 | 0.0 | 0.00 | 0.61 | 0.00 | 93 | 1014.1 |
| 20260904063524 | 67 | 0 | 0.0 | 0.0 | 0.00 | 0.61 | 0.00 | 93 | 1013.9 |
| 20260904063003 | 67 | 0 | 0.0 | 0.0 | 0.00 | 0.61 | 0.00 | 93 | 1013.9 |